STARLINK-3741 (52619 NORAD) Tracking and Keplerian Element Data

This shows tracking and keplerian element data for the satellite.

Feedback or suggestion? Click here.




ElementValue
Catalog52619
NameSTARLINK-3741
Epoch Orbit1789
Epoch Day248.16667824
Epoch Year2022
RAAN262.1044
Inclination53.2166
Eccentricity0.0001805
Argument of Perigee55.3063
Mean Anonmoly147.3571
Mean Motion15.088625
Decay Rate-0.00017262
L11 52619U 22052X 22248.16667824 -.00017262 00000+0 -10684-2 0 9992
L22 52619 53.2166 262.1044 0001805 55.3063 147.3571 15.08862500 17891

Live tracking and technical data element details for STARLINK-3741 (NORAD 52619). STARLINK-3741 can be tracked NOW for your location showing map with azimuth and elevation plus other details from your city location.

Track the satellite on the map from your city or location and see movement details for azimuth, elevation, latitude, longitude, range, height, and movement on the map or in text.







IsCatalogInMostPopularTable: catalog: 52619, numindb: 9
Update: records affected: 1



GetName: 52619 STARLINK-3741

Hit Count: updated at: Sun, 25 Sep 2022 08:54:49 GMT